Fairbanks Eiels, AK

2:06 AM AKDT on October 23, 2017 (GMT -0800)
Eielson Air Force Base

Weather History for PAEI - February, 2014

Change the Weather History Date:

Thursday, February 6, 2014

  Actual Average Record
Temperature  
Mean Temperature 11 °F -  
Max Temperature 19 °F 8 °F 40 °F (1980)
Min Temperature -4 °F -10 °F -50 °F (1953)
Degree Days  
Heating Degree Days 54    
Moisture  
Dew Point 12 °F    
Average Humidity 89    
Maximum Humidity 93    
Minimum Humidity 80    
Precipitation  
Precipitation 0.18 in - - ()
Snow  
Snow 0.00 in - - ()
Snow Depth 5.00 in    
Sea Level Pressure  
Sea Level Pressure 30.25 in    
Wind  
Wind Speed 4 mph (NNW)    
Max Wind Speed 10 mph    
Max Gust Speed -    
Visibility 5 miles    
Events Fog , Snow    
Averages and records for this station are not official NWS values.
T = Trace of Precipitation, MM = Missing Value Source: NWS Daily Summary

Daily Weather History Graph

Daily Weather History Graph

Search for Another Location

Airport or City:

Trip Planner

Search our weather history database for the weather conditions in past years. The results will help you decide how hot, cold, wet, or windy it might be!

Date:

Astronomy

Feb. 06, 2014 Rise Set
Actual Time 9:15 AM AKST 4:50 PM AKST
Civil Twilight 8:19 AM AKST 5:46 PM AKST
Nautical Twilight 7:21 AM AKST 6:45 PM AKST
Astronomical Twilight 6:24 AM AKST 7:41 PM AKST
Moon 10:17 AM AKST (2/6) 2:46 AM AKST (2/6)
Length of Visible Light 9h 26m
Length of Day
7h 34m
Waxing Crescent, 51% of the Moon is Illuminated
Feb 6
Waxing Crescent
Feb 14
Full
Feb 22
Last Quarter
Feb 28
New
Mar 8
First Quarter

Hourly Weather History & Observations

Time (AKST) Temp. Windchill Dew Point Humidity Pressure Visibility Wind Dir Wind Speed Gust Speed Precip Events Conditions
12:58 AM 14.9 °F - 12.2 °F 89% 30.64 in 3.0 mi Calm Calm - 0.00 in   Light Freezing Drizzle
1:58 AM 15.8 °F - 12.2 °F 86% 30.64 in 3.0 mi Calm Calm - 0.00 in   Light Freezing Drizzle
2:58 AM 15.4 °F 8.1 °F 12.7 °F 89% 30.60 in 3.0 mi Variable 4.6 mph - 0.00 in   Light Freezing Drizzle
3:58 AM 15.4 °F 8.1 °F 12.7 °F 89% 30.57 in 1.5 mi South 4.6 mph - 0.00 in   Light Freezing Drizzle
4:58 AM 15.8 °F 8.6 °F 12.2 °F 86% 30.53 in 2.5 mi Variable 4.6 mph - 0.00 in   Light Freezing Drizzle
5:58 AM 15.4 °F 6.8 °F 12.7 °F 89% 30.47 in 2.0 mi Variable 5.8 mph - 0.00 in   Light Freezing Drizzle
6:58 AM 15.6 °F 8.3 °F 12.9 °F 89% 30.42 in 2.0 mi Variable 4.6 mph - 0.00 in Snow Light Snow
7:58 AM 15.6 °F 7.0 °F 12.9 °F 89% 30.35 in 2.0 mi Variable 5.8 mph - 0.00 in Snow Light Snow
8:25 AM 15.8 °F 7.2 °F 12.2 °F 86% 30.26 in 1.5 mi Variable 5.8 mph - N/A Snow Light Snow
8:58 AM 15.8 °F - 14.0 °F 93% 30.32 in 1.5 mi Calm Calm - 0.00 in Snow Light Snow
9:11 AM 15.8 °F - 14.0 °F 93% 30.27 in 0.5 mi Calm Calm - N/A Snow Snow
9:58 AM 15.6 °F 8.3 °F 12.9 °F 89% 30.26 in 0.5 mi Variable 4.6 mph - 0.00 in Snow Snow
10:28 AM 15.8 °F 5.1 °F 14.0 °F 93% 30.18 in 0.8 mi South 8.1 mph - N/A Snow Light Snow
10:58 AM 16.3 °F 9.2 °F 13.8 °F 90% 30.22 in 0.5 mi SSW 4.6 mph - 0.00 in Fog , Snow Snow
11:58 AM 17.6 °F - 15.8 °F 93% 30.19 in 0.5 mi Calm Calm - 0.00 in Fog , Snow Snow
12:43 PM 19.4 °F - 15.8 °F 86% 30.12 in 0.8 mi North 2.3 mph - N/A Snow Light Snow
12:58 PM 18.9 °F - 16.7 °F 91% 30.16 in 1.0 mi North 2.3 mph - 0.00 in Snow Light Snow
1:13 PM 19.4 °F 11.5 °F 15.8 °F 86% 30.12 in 1.5 mi North 5.8 mph - N/A Snow Light Snow
1:58 PM 17.6 °F 8.2 °F 15.8 °F 93% 30.15 in 4.0 mi Variable 6.9 mph - 0.00 in Snow Light Snow
2:58 PM 19.4 °F 7.9 °F 17.2 °F 91% 30.14 in 7.0 mi West 10.4 mph - 0.00 in Snow Light Snow
3:58 PM 19.0 °F 9.0 °F 16.9 °F 91% 30.13 in 4.0 mi West 8.1 mph - 0.00 in Snow Light Snow
4:28 PM 19.4 °F 10.4 °F 15.8 °F 86% 30.09 in 9.0 mi Variable 6.9 mph - N/A   Overcast
4:58 PM 18.7 °F 10.6 °F 16.5 °F 91% 30.12 in 2.5 mi Variable 5.8 mph - 0.00 in Snow Light Snow
5:58 PM 18.1 °F 8.9 °F 15.8 °F 91% 30.12 in 9.0 mi Variable 6.9 mph - 0.00 in Snow Light Snow
6:43 PM 17.6 °F 10.7 °F 15.8 °F 93% 30.08 in 5.0 mi Variable 4.6 mph - N/A Snow Light Snow
6:58 PM 17.4 °F 10.4 °F 14.9 °F 90% 30.12 in 10.0 mi Variable 4.6 mph - 0.00 in   Mostly Cloudy
7:13 PM 15.8 °F 6.1 °F 14.0 °F 93% 30.09 in 10.0 mi Variable 6.9 mph - N/A   Partly Cloudy
7:28 PM 15.8 °F 7.2 °F 12.2 °F 86% 30.09 in 10.0 mi Variable 5.8 mph - N/A   Mostly Cloudy
7:58 PM 9.7 °F -2.4 °F 6.3 °F 86% 30.15 in 10.0 mi North 8.1 mph - N/A   Mostly Cloudy
8:28 PM 8.6 °F -1.3 °F 5.0 °F 85% 30.10 in 10.0 mi North 5.8 mph - N/A   Scattered Clouds
8:58 PM 7.2 °F -7.3 °F 3.2 °F 84% 30.16 in 10.0 mi North 10.4 mph - N/A   Clear
9:58 PM 3.2 °F -11.3 °F -0.0 °F 86% 30.19 in 10.0 mi North 9.2 mph - 0.00 in   Clear
10:58 PM 5.2 °F -7.9 °F 1.4 °F 84% 30.20 in 10.0 mi NNW 8.1 mph - N/A   Clear
11:58 PM -4.0 °F -14.6 °F -8.7 °F 80% 30.24 in 10.0 mi Variable 4.6 mph - N/A   Clear